Terug naar catalogus

STARLINK-33544

ActiefCommunicatieVLEO
NORAD 62281·PAYLOAD·🇺🇸 United States

Gelanceerd Dec 8, 2024 vanaf Cape Canaveral Space Force Station

Loading…

Volgende Passages (komende 24 uur)

TLE

VersSource: CelesTrak SupGP

Epoch: Sep 15, 2026, 03:28 UTC

1 62281C 24237Q   26258.14493056 -.00051025  00000+0 -18483-2 0  2580
2 62281  42.9995 226.6538 0001183 269.5185 100.3979 15.27600473    15

Volg STARLINK-33544 in realtime met AllMySat

Download on the App Store